Location: ??????
(41.3164°N, 22.6615°E)
Time: 09:54:25
(UTC+00:00)

Oscar 11 - Visible Passes

Search period start: 04 July 2022 00:00
Search period end: 14 July 2022 00:00
Orbit: 613 x 622 km, 97.6° (Epoch: 03 July)

Date Brightness Start Highest point End Pass type
(mag) Time Alt. Az. Time Alt. Az. Time Alt. Az.
06 Jul 10.1 02:10:12 10° ENE 02:11:27 11° E 02:12:42 10° ESE visible
07 Jul 9.8 02:25:19 10° NE 02:28:10 17° E 02:31:00 10° SE visible
12 Jul 10.0 02:12:51 10° ENE 02:14:38 12° E 02:16:25 10° ESE visible
13 Jul 9.7 02:28:15 10° NE 02:31:19 19° E 02:34:22 10° SE visible
